[[{"header":{"parameterUnit":"m.s-1","parameterCategory":1,"la1":30.2991,"la2":30.254,"lo1":-89.0895,"lo2":-89.0444,"dy":0.0017,"dx":0.0017,"nx":28,"ny":28,"refTime":"2025-09-13T21:00:00:Z","depth":0,"parameterNumber":2,"parameterNumberName":"U-component_of_WINDS"},"data":[0,0,0,0,0,0,0,0,0,0,0,0,0,0,0,0,0,0,0,0,0,0,0,0,0,0,0,0,0,0,0,0,0,0,0,0,0,0,0,0,0,0,0,0,0,0,0,0,0,0,0,0,0,0,0,0,0,0,-0.9978,-0.9977,0,-0.9883,-0.9882,-0.9881,-0.9838,-0.9838,-0.9838,-0.9838,-0.9738,-0.9736,-0.9733,0,0,0,0,0,0,0,0,0,0,0,0,0,-1.012,-1.0118,-0.9978,-0.9977,-0.9976,-0.9883,-0.9882,-0.9881,-0.9838,-0.9838,-0.9838,-0.9838,-0.9739,-0.9736,-0.9733,0,0,0,0,0,0,0,0,0,0,0,0,0,-1.0045,-1.0117,-0.9978,-0.9943,-0.9939,-0.9884,-0.9882,-0.988,-0.9838,-0.9838,-0.9838,-0.9838,-0.974,-0.9736,-0.9732,-0.9704,0,0,-0.972,-0.9718,0,0,0,0,0,0,0,0,-1.0049,-1.004,-0.9949,-0.9945,-0.9941,-0.9872,-0.9896,-0.9821,-0.9837,-0.9876,-0.9838,-0.9838,-0.9783,-0.9775,-0.9757,-0.9699,-0.9695,-0.9719,-0.9717,-0.9715,-0.9714,0,0,0,0,0,0,0,-1.0055,-1.0044,-0.994,-0.9948,-0.9943,-0.9932,-0.9921,-0.9881,-0.983,-0.9873,-0.9869,-0.9859,-0.978,-0.9761,-0.9754,-0.9694,-0.9719,-0.9716,-0.9713,-0.9712,-0.9609,-0.9609,0,0,0,0,0,0,-1.0066,-1.0048,-0.9943,-0.9938,-0.9997,-0.9929,-0.9917,-0.9894,-0.983,-0.982,-0.9859,-0.9857,-0.9768,-0.9759,-0.9751,-0.9714,-0.9715,-0.9711,-0.9709,-0.9609,-0.9609,-0.9609,0,0,0,0,0,0,-1.0069,-1.0057,-0.9947,-0.9992,-0.9977,-0.9926,-0.9901,-0.9892,-0.9873,-0.9819,-0.981,-0.9849,-0.9768,-0.9756,-0.9716,-0.971,-0.9709,-0.9706,-0.961,-0.9609,-0.9609,-0.964,0,0,0,0,0,0,-1.0073,-1.0058,-1.0047,-0.9992,-0.9975,-0.9915,-0.99,-0.989,-0.9866,-0.9863,-0.9807,-0.9798,-0.9767,-0.9723,-0.9712,-0.9704,-0.9702,-0.961,-0.961,-0.9609,-0.9639,-0.964,-0.9642,0,0,0,0,0,-1.0079,-1.0059,-1.0047,-1.0035,-0.996,-0.9915,-0.9905,-0.987,-0.9866,-0.9854,-0.982,-0.98,-0.9712,-0.9719,-0.9707,-0.9697,-0.961,-0.961,-0.9609,-0.9638,-0.964,-0.9642,0,0,0,0,0,0,-1.0113,-1.0051,-1.0037,-0.9999,-0.9963,-0.9907,-0.9891,-0.9873,-0.9836,-0.9834,-0.9792,-0.978,-0.9744,-0.9716,-0.9725,-0.9667,-0.966,-0.9657,-0.9686,-0.9687,-0.9689,-0.9696,-0.9699,0,0,0,0,0,-1.0117,-1.0086,-1.0033,-1.0004,-0.9987,-0.9943,-0.9921,-0.9898,-0.9858,-0.9842,-0.9805,-0.9767,-0.973,-0.9707,-0.9671,-0.9635,-0.9623,-0.9623,-0.9624,-0.9626,-0.9623,-0.9603,-0.9603,-0.9607,-0.9607,-0.9607,0,0,-1.0123,-1.0085,-1.0068,-1.001,-0.9979,-0.9948,-0.993,-0.9897,-0.9873,-0.9837,-0.9797,-0.9769,-0.9723,-0.9685,-0.9667,-0.9662,-0.962,-0.9625,-0.9626,-0.9623,-0.9602,-0.9602,-0.9602,-0.9607,-0.9607,-0.9607,0,0,-1.0118,-1.0087,-1.006,-1.003,-0.9984,-0.9955,-0.9949,-0.9896,-0.9877,-0.9836,-0.9809,-0.978,-0.9718,-0.9687,-0.9663,-0.9649,-0.963,-0.9639,-0.9645,-0.9626,-0.9626,-0.9625,-0.962,-0.9619,-0.9637,-0.9637,-0.9637,0,-1.0132,-1.0083,-1.0048,-1.0017,-0.9993,-0.9961,-0.9933,-0.9905,-0.9849,-0.9833,-0.9828,-0.9752,-0.9718,-0.9674,-0.967,-0.9652,-0.9644,-0.9644,-0.9629,-0.9628,-0.9627,-0.9622,-0.962,-0.9638,-0.9638,-0.9638,-0.9638,0,-1.0102,-1.007,-1.0053,-1.0002,-0.9976,-0.9947,-0.9907,-0.9885,-0.9864,-0.9836,-0.9795,-0.9755,-0.9711,-0.9698,-0.9677,-0.965,-0.9649,-0.9637,-0.9628,-0.9629,-0.9623,-0.9621,-0.964,-0.964,-0.9639,-0.9639,0,0,-1.0115,-1.0046,-1.0041,-1.0017,-0.9965,-0.9939,-0.9909,-0.9866,-0.9848,-0.9811,-0.9785,-0.9734,-0.9724,-0.9697,-0.9672,-0.9655,-0.9648,-0.9646,-0.9644,-0.9647,-0.9616,-0.9626,-0.9624,-0.9635,-0.9634,-0.9634,-0.962,0,-1.0103,-1.0048,-1.0017,-0.9975,-0.9944,-0.9914,-0.9888,-0.9853,-0.9826,-0.9796,-0.9766,-0.9731,-0.9719,-0.9703,-0.9685,-0.9652,-0.9641,-0.9653,-0.9609,-0.9608,-0.9621,-0.9621,-0.963,-0.9619,-0.9618,-0.9618,-0.9617,0,-1.0081,-1.0047,-1.0002,-0.9955,-0.9941,-0.9918,-0.9877,-0.9849,-0.9809,-0.979,-0.9762,-0.9737,-0.9704,-0.9699,-0.9653,-0.9663,-0.9643,-0.9624,-0.9623,-0.9617,-0.9612,-0.9615,-0.9615,-0.9613,-0.9614,-0.9614,-0.9614,0,-1.0096,-1.0038,-1.0004,-0.9985,-0.9928,-0.9913,-0.9889,-0.9849,-0.9826,-0.979,-0.9775,-0.9736,-0.9714,-0.9684,-0.965,-0.965,-0.9608,-0.96,-0.9592,-0.9593,-0.9583,-0.9584,-0.958,-0.9572,-0.9572,-0.9572,-0.9572,0,-1.0085,-1.0059,-1.0009,-0.9989,-0.9959,-0.9923,-0.9894,-0.9867,-0.9833,-0.9806,-0.9777,-0.9753,-0.9709,-0.9679,-0.9653,-0.9619,-0.9609,-0.9594,-0.9587,-0.9596,-0.9598,-0.9582,-0.9582,-0.9571,-0.9571,-0.9572,-0.9572,0,-1.0095,-1.0061,-1.0022,-0.9973,-0.996,-0.994,-0.9898,-0.9876,-0.9849,-0.9815,-0.9805,-0.9762,-0.9725,-0.9689,-0.9639,-0.9621,-0.9588,-0.9579,-0.9602,-0.9598,-0.9592,-0.9593,-0.9577,-0.9573,-0.9568,-0.9568,-0.9568,0,-1.0091,-1.007,-1.0019,-1.0,-0.9977,-0.9946,-0.9923,-0.9887,-0.9864,-0.9818,-0.9802,-0.9764,-0.9732,-0.9675,-0.9638,-0.9601,-0.959,-0.9587,-0.9584,-0.9595,-0.959,-0.9592,-0.959,-0.9588,-0.9589,-0.9589,-0.9589,0,-1.0086,-1.0071,-1.0039,-1.0002,-0.9976,-0.9945,-0.9912,-0.9898,-0.9856,-0.9832,-0.9795,-0.977,-0.972,-0.9683,-0.9641,-0.9616,-0.9595,-0.9591,-0.9587,-0.9596,-0.961,-0.9602,-0.9605,-0.9591,-0.9591,-0.959,-0.959,-0.959,-1.0089,-1.007,-1.0031,-0.9997,-0.997,-0.9941,-0.9919,-0.9889,-0.9858,-0.9816,-0.9796,-0.9759,-0.9721,-0.9663,-0.9639,-0.9609,-0.9604,-0.9598,-0.9596,-0.9595,-0.9598,-0.9615,-0.9601,-0.9601,-0.9601,-0.9601,-0.9601,0,-1.0083,-1.0058,-1.0027,-0.9983,-0.9957,-0.9942,-0.9905,-0.9884,-0.9852,-0.9819,-0.9788,-0.9746,-0.971,-0.9672,-0.9633,-0.9617,-0.9607,-0.9608,-0.9609,-0.9604,-0.9605,-0.9612,-0.9617,-0.9617,-0.9617,-0.9617,-0.9617,-0.9617,-1.0077,-1.0044,-1.0024,-0.9978,-0.9952,-0.9916,-0.9897,-0.987,-0.9844,-0.9799,-0.9769,-0.9745,-0.9709,-0.9669,-0.9635,-0.9625,-0.9612,-0.9616,-0.9603,-0.9605,-0.9603,-0.9602,-0.9609,-0.9614,-0.9614,-0.9604,-0.9604,-0.9604]},{"header":{"parameterUnit":"m.s-1","parameterCategory":1,"la1":30.2991,"la2":30.254,"lo1":-89.0895,"lo2":-89.0444,"dy":0.0017,"dx":0.0017,"nx":28,"ny":28,"refTime":"2025-09-13T21:00:00:Z","depth":0,"parameterNumber":3,"parameterNumberName":"V-component_of_WINDS"},"data":[0,0,0,0,0,0,0,0,0,0,0,0,0,0,0,0,0,0,0,0,0,0,0,0,0,0,0,0,0,0,0,0,0,0,0,0,0,0,0,0,0,0,0,0,0,0,0,0,0,0,0,0,0,0,0,0,0,0,1.0554,1.0553,0,1.0522,1.0522,1.0521,1.0532,1.0533,1.0533,1.0534,1.0497,1.0496,1.0494,0,0,0,0,0,0,0,0,0,0,0,0,0,1.0619,1.0617,1.0554,1.0553,1.0553,1.0522,1.0522,1.0521,1.0532,1.0533,1.0533,1.0534,1.0498,1.0496,1.0494,0,0,0,0,0,0,0,0,0,0,0,0,0,1.0589,1.0617,1.0554,1.0554,1.0554,1.0522,1.0522,1.0521,1.0532,1.0533,1.0534,1.0535,1.0498,1.0496,1.0494,1.0458,0,0,1.0486,1.0485,0,0,0,0,0,0,0,0,1.0591,1.0586,1.0555,1.0554,1.0554,1.0532,1.0531,1.05,1.0531,1.054,1.0534,1.0535,1.0508,1.0505,1.0496,1.0456,1.0454,1.0486,1.0484,1.0483,1.0483,0,0,0,0,0,0,0,1.0593,1.0588,1.0541,1.0554,1.0554,1.0555,1.0552,1.0525,1.0518,1.0539,1.054,1.0536,1.0508,1.0498,1.0495,1.0454,1.0486,1.0484,1.0482,1.0481,1.038,1.0378,0,0,0,0,0,0,1.0595,1.059,1.0542,1.054,1.0575,1.0553,1.0549,1.0538,1.0519,1.0517,1.0536,1.0537,1.0502,1.0498,1.0494,1.0449,1.0483,1.0481,1.048,1.0381,1.0379,1.0378,0,0,0,0,0,0,1.0597,1.0591,1.0543,1.0565,1.0559,1.0551,1.0538,1.0537,1.0528,1.0516,1.0514,1.0528,1.0503,1.0498,1.0466,1.0448,1.048,1.0478,1.0382,1.038,1.0379,1.0358,0,0,0,0,0,0,1.0599,1.0592,1.0579,1.0565,1.0558,1.0517,1.0537,1.0535,1.0524,1.0526,1.0508,1.0506,1.0503,1.047,1.0464,1.0445,1.0476,1.0384,1.0381,1.0379,1.0361,1.0356,1.0352,0,0,0,0,0,1.0601,1.0574,1.0578,1.0572,1.0542,1.0516,1.0512,1.0511,1.0522,1.0509,1.0501,1.0507,1.0451,1.0467,1.046,1.044,1.0385,1.0382,1.0379,1.0363,1.0357,1.0352,0,0,0,0,0,0,1.0585,1.0572,1.0577,1.0545,1.0532,1.0518,1.0501,1.0505,1.0487,1.049,1.0487,1.0483,1.0451,1.0443,1.046,1.0403,1.042,1.0415,1.0409,1.0404,1.0399,1.0401,1.0474,0,0,0,0,0,1.0578,1.056,1.0549,1.0522,1.0515,1.0509,1.0498,1.0498,1.0484,1.0478,1.0468,1.0452,1.0431,1.0417,1.0398,1.036,1.0355,1.0343,1.0339,1.0335,1.0331,1.0308,1.0302,1.0369,1.0369,1.0369,0,0,1.0563,1.0554,1.0542,1.0518,1.0508,1.0487,1.0504,1.0482,1.0466,1.0474,1.0443,1.0436,1.0418,1.0383,1.0367,1.0375,1.0312,1.0332,1.0329,1.0326,1.0305,1.0298,1.0293,1.0367,1.0367,1.0368,0,0,1.0524,1.0516,1.0492,1.0481,1.0466,1.0462,1.0456,1.0442,1.0437,1.0407,1.0413,1.0393,1.0357,1.0344,1.0333,1.0288,1.0292,1.0282,1.0259,1.0237,1.0231,1.0227,1.0208,1.0202,1.0278,1.0278,1.0278,0,1.0506,1.0477,1.0478,1.0455,1.0443,1.0451,1.0425,1.0415,1.0393,1.0384,1.0394,1.0349,1.0338,1.0299,1.0288,1.0279,1.027,1.0283,1.0232,1.0228,1.0223,1.0205,1.0199,1.0277,1.0277,1.0277,1.0277,0,1.0454,1.0434,1.0415,1.0395,1.0382,1.0357,1.0353,1.0339,1.0341,1.0335,1.0303,1.0291,1.0267,1.0259,1.026,1.0219,1.0224,1.0233,1.025,1.0215,1.0199,1.0192,1.0275,1.0275,1.0276,1.0276,0,0,1.0403,1.0385,1.0378,1.0368,1.0352,1.0335,1.031,1.0288,1.0275,1.026,1.0237,1.0207,1.0215,1.0202,1.0202,1.0183,1.0145,1.0194,1.0193,1.0183,1.0097,1.0088,1.008,1.0149,1.0147,1.0146,1.0097,0,1.0361,1.0319,1.0319,1.0279,1.0258,1.0265,1.0243,1.023,1.0224,1.0205,1.0198,1.0175,1.0189,1.0181,1.0163,1.0154,1.0127,1.0158,1.0125,1.0124,1.0126,1.0072,1.0063,1.0017,1.0091,1.009,1.0089,0,1.0306,1.029,1.0248,1.0233,1.0224,1.0205,1.0184,1.0166,1.0151,1.0148,1.0133,1.0135,1.0108,1.0127,1.0088,1.0108,1.0095,1.0088,1.0087,1.0081,1.0102,1.0062,1.0003,0.9995,1.0079,1.008,1.0081,0,1.0269,1.0237,1.0207,1.0199,1.0182,1.0168,1.016,1.0146,1.0132,1.0114,1.0105,1.0083,1.0071,1.0053,1.0049,1.0064,1.0008,1.0028,1.0003,1.0002,0.9988,0.9989,0.9923,0.9985,0.9985,0.9985,0.9985,0,1.0221,1.0194,1.0191,1.0172,1.0141,1.0142,1.0111,1.0104,1.0091,1.007,1.0075,1.0055,1.0052,1.003,1.0026,0.9992,0.9987,0.9982,0.9981,0.998,0.998,0.9969,0.9971,0.9983,0.9983,0.9984,0.9984,0,1.0174,1.0171,1.0138,1.0125,1.0121,1.0099,1.0087,1.0068,1.0063,1.0036,1.003,1.0021,0.9996,0.999,0.996,0.9957,0.9916,0.992,0.9922,0.9921,0.9895,0.9897,0.9817,0.9806,0.9878,0.9877,0.9877,0,1.0141,1.0121,1.0106,1.0092,1.0084,1.0063,1.0049,1.0048,1.0034,1.0014,0.9997,0.9972,0.9952,0.9911,0.9901,0.9877,0.9878,0.9852,0.9874,0.9873,0.9874,0.9874,0.987,0.9846,0.9846,0.9845,0.9845,0,1.0083,1.0083,1.0064,1.0044,1.0028,1.0012,0.9996,0.9985,0.9982,0.9965,0.9939,0.9924,0.9893,0.9867,0.9844,0.9833,0.9837,0.9838,0.983,0.9828,0.9829,0.9825,0.9907,0.9839,0.984,0.984,0.984,0.9841,1.0041,1.0022,1.0008,0.9986,0.9975,0.996,0.9941,0.9935,0.9914,0.9889,0.989,0.9861,0.9845,0.9813,0.9802,0.9778,0.9786,0.9776,0.9772,0.9769,0.9765,0.9835,0.9774,0.9774,0.9774,0.9775,0.9775,0,0.998,0.9972,0.9952,0.9931,0.9913,0.9921,0.9904,0.9888,0.9863,0.9848,0.9829,0.9798,0.9773,0.9762,0.9737,0.9719,0.972,0.9713,0.9712,0.9709,0.9761,0.9769,0.9712,0.9712,0.9712,0.9712,0.9712,0.9712,0.9947,0.9915,0.9913,0.9875,0.9866,0.9839,0.9828,0.9814,0.9802,0.9768,0.9748,0.9741,0.9727,0.9701,0.9677,0.9674,0.9663,0.9654,0.9652,0.97,0.9706,0.9712,0.9719,0.9652,0.9652,0.9601,0.9601,0.96]}]]